Carlsbad, NM

2:58 PM MST on February 24, 2018 (GMT -0700)
Cavern City

Weather History for KCNM - August, 2013

Change the Weather History Date:

Sunday, August 18, 2013

  Actual Average Record
Temperature  
Mean Temperature 83 °F -  
Max Temperature 100 °F 93 °F 106 °F (1969)
Min Temperature 66 °F 66 °F 58 °F (1979)
Cooling Degree Days 18    
Growing Degree Days 33 (Base 50)    
Moisture  
Dew Point 51 °F    
Average Humidity 35    
Maximum Humidity 63    
Minimum Humidity 15    
Precipitation  
Precipitation 0.00 in - - ()
Sea Level Pressure  
Sea Level Pressure 29.87 in    
Wind  
Wind Speed 3 mph (SE)    
Max Wind Speed 14 mph    
Max Gust Speed -    
Visibility 10 miles    
Events      
Averages and records for this station are not official NWS values.
T = Trace of Precipitation, MM = Missing Value Source: NWS Daily Summary

Daily Weather History Graph

Daily Weather History Graph

Search for Another Location

Airport or City:

Trip Planner

Search our weather history database for the weather conditions in past years. The results will help you decide how hot, cold, wet, or windy it might be!

Date:

Astronomy

Aug. 18, 2013 Rise Set
Actual Time 6:23 AM MDT 7:37 PM MDT
Civil Twilight 5:57 AM MDT 8:03 PM MDT
Nautical Twilight 5:27 AM MDT 8:33 PM MDT
Astronomical Twilight 4:55 AM MDT 9:05 PM MDT
Moon 5:42 PM MDT (8/18) 3:40 AM MDT (8/18)
Length of Visible Light 14h 05m
Length of Day
13h 14m
Waxing Gibbous, 92% of the Moon is Illuminated
Aug 18
Waxing Gibbous
Aug 20
Full
Aug 28
Last Quarter
Sep 5
New
Sep 12
First Quarter

Hourly Weather History & Observations

Time (MDT) Temp. Heat Index Dew Point Humidity Pressure Visibility Wind Dir Wind Speed Gust Speed Precip Events Conditions
12:53 AM 80.1 °F - 51.1 °F 36% 29.89 in 10.0 mi Calm Calm - N/A   Clear
1:53 AM 75.9 °F - 51.1 °F 42% 29.87 in 10.0 mi Calm Calm - N/A   Clear
2:53 AM 77.0 °F - 52.0 °F 42% 29.86 in 10.0 mi NE 6.9 mph - N/A   Clear
3:53 AM 73.0 °F - 52.0 °F 48% 29.86 in 10.0 mi Calm Calm - N/A   Clear
4:53 AM 70.0 °F - 53.1 °F 55% 29.88 in 10.0 mi Calm Calm - N/A   Clear
5:53 AM 70.0 °F - 52.0 °F 53% 29.88 in 10.0 mi Calm Calm - N/A   Clear
6:53 AM 66.0 °F - 53.1 °F 63% 29.91 in 10.0 mi Calm Calm - N/A   Clear
7:53 AM 75.0 °F - 54.0 °F 48% 29.92 in 10.0 mi Calm Calm - N/A   Clear
8:53 AM 80.1 °F 80.0 °F 54.0 °F 40% 29.93 in 10.0 mi Calm Calm - N/A   Clear
9:53 AM 82.9 °F 81.8 °F 53.1 °F 36% 29.92 in 10.0 mi NNW 3.5 mph - N/A   Clear
10:53 AM 88.0 °F 85.9 °F 54.0 °F 31% 29.92 in 10.0 mi NNE 4.6 mph - N/A   Clear
11:53 AM 91.0 °F 88.7 °F 54.0 °F 28% 29.90 in 10.0 mi East 3.5 mph - N/A   Clear
12:53 PM 93.9 °F - 52.0 °F 24% 29.88 in 10.0 mi Variable 3.5 mph - N/A   Clear
1:53 PM 97.0 °F - 48.0 °F 19% 29.85 in 10.0 mi Variable 3.5 mph - N/A   Clear
2:53 PM 99.0 °F - 48.0 °F 18% 29.82 in 10.0 mi Variable 3.5 mph - N/A   Clear
3:53 PM 100.0 °F - 45.0 °F 15% 29.80 in 10.0 mi Variable 5.8 mph - N/A   Clear
4:53 PM 100.0 °F - 45.0 °F 15% 29.79 in 10.0 mi ENE 4.6 mph - N/A   Clear
5:53 PM 98.1 °F - 45.0 °F 16% 29.78 in 10.0 mi Variable 3.5 mph - N/A   Clear
6:53 PM 95.0 °F - 46.0 °F 19% 29.79 in 10.0 mi ESE 4.6 mph - N/A   Clear
7:53 PM 89.1 °F - 50.0 °F 26% 29.81 in 10.0 mi SSE 13.8 mph - N/A   Clear
8:00 PM 87.8 °F - 51.8 °F 29% 30.00 in 10.0 mi South 13.8 mph - N/A   Clear
8:53 PM 84.0 °F 82.6 °F 54.0 °F 35% 29.85 in 10.0 mi SSE 12.7 mph - N/A   Clear
9:53 PM 82.0 °F 81.6 °F 55.9 °F 41% 29.88 in 10.0 mi South 8.1 mph - N/A   Clear
10:53 PM 78.1 °F - 55.0 °F 45% 29.88 in 10.0 mi SSE 5.8 mph - N/A   Clear
11:53 PM 75.9 °F - 54.0 °F 46% 29.87 in 10.0 mi South 6.9 mph - N/A   Clear